Regional Weather Roundup
Issued by NWS

Home | Current Version | Previous Version | Graphics & Text | Print | Product List | Glossary On
Versions: 1 2 3 4 5 6 7 8 9 10 11 12 13 14 15 16 17 18 19 20 21 22 23 24 25 26 27 28 29 30 31 32 33 34 35 36 37 38 39 40 41 42 43 44 45 46 47 48 49 50
697
ASUS43 KBIS 230002
RWRND

NORTH DAKOTA REGIONAL WEATHER ROUNDUP
NATIONAL WEATHER SERVICE BISMARCK ND
700 PM CDT THU JUN 22 2017

NOTE: "FAIR" INDICATES FEW OR NO CLOUDS BELOW 12,000 FEET WITH NO
SIGNIFICANT WEATHER AND/OR OBSTRUCTIONS TO VISIBILITY.


NDZ001>003-009>011-017-230100-
NORTHWEST NORTH DAKOTA

CITY           SKY/WX    TMP DP  RH WIND       PRES   REMARKS
WILLISTON      CLOUDY    63  47  55 W25G36    29.88R
6HR MIN TEMP:  62; 6HR MAX TEMP:  75;

MINOT          MOSUNNY   66  41  40 W31G43    29.76R
MINOT AFB      MOSUNNY   62  45  52 W28G33    29.75R
$$

NDZ018>021-031>035-040>046-230100-
SOUTHWEST NORTH DAKOTA

CITY           SKY/WX    TMP DP  RH WIND       PRES   REMARKS
BISMARCK       MOSUNNY   74  32  21 W22G36    29.81S
6HR MIN TEMP:  74; 6HR MAX TEMP:  79;

DICKINSON      MOSUNNY   69  24  18 NW28G44   29.86R
GARRISON         N/A     67  37  33 NW29G38   29.78S
6HR MIN TEMP:  67; 6HR MAX TEMP:  72;

HETTINGER ARPT MOSUNNY   72  29  20 NW23G32   29.91S
$$

NDZ004>008-012>016-024-026-027-054-230100-
NORTHEAST NORTH DAKOTA

CITY           SKY/WX    TMP DP  RH WIND       PRES   REMARKS
GRAND FORKS    PTSUNNY   74  40  29 W17G30    29.66F
GRND FRKS AFB  MOSUNNY   72  38  28 NW21G29   29.67F
DEVILS LAKE    SUNNY     67  41  38 W31G38    29.71R
$$

NDZ022-023-025-028>030-036>039-047>053-230100-
SOUTHEAST NORTH DAKOTA

CITY           SKY/WX    TMP DP  RH WIND       PRES   REMARKS
FARGO          SUNNY     76  36  23 W22G31    29.72R
6HR MIN TEMP:  76; 6HR MAX TEMP:  80;

JAMESTOWN      MOSUNNY   73  34  23 W22G32    29.75F
$$





USA.gov is the U.S. government's official web portal to all federal, state and local government web resources and services.